User: anonymous   Login
Location: Maddington
(51.2000°N, 1.9167°W)
Time: 20:40:05
(UTC+00:00)
Language:

Cosmos 1844 Rocket - Orbit

View from above orbital plane
View from above orbital plane
View from above satellite
View from above satellite

Ground track
Ground track

The orbit data is extracted from the following two-line orbital elements,

1 17974U 87041B   20333.46793056 -.00000188  00000-0 -69034-4 0  9994
2 17974  71.0066 134.4921 0016406 269.3383 111.0455 14.17271483735241
Epoch (UTC): 28 November 2020 11:13:49
Eccentricity: 0.0016406
inclination: 71.0066°
perigee height: 823 km
apogee height: 846 km
right ascension of ascending node: 134.4921°
argument of perigee: 269.3383°
revolutions per day: 14.17271483
mean anomaly at epoch: 111.0455°
orbit number at epoch: 73524

The dashed part of the orbit path shows where the satellite is in the earth's shadow,  

DLR